sat.trackr.live / text

‹ back to catalog

STARLINK-5776

NORAD 57151 · 2023-090BC

PAYLOAD ACTIVE UNKNOWN

§ Identity

Operator
Country
US
Launch date
2023-06-23
Launch site
AFETR
Launch vehicle
Mass (kg)
RCS (m²)

Purposes: comms

External: N2YO · Heavens-Above · Gunter

§ Orbital elements

Epoch: 2026-09-20T08:29:44.384352Z

Period
94.27 min
Inclination
43.0022°
Eccentricity
0.0001457
Mean motion
15.27577018 rev/d
Perigee alt
482.1 km
Apogee alt
484.1 km
Semi-major
6,861.2 km
B*
2.8986e-5
RAAN
244.0720°
Arg perigee
265.3465°
Mean anomaly
94.7220°
Rev number
18,031

§ Raw data

STARLINK-57761 57151U 23090BC  26263.35398593  .00000535  00000+0  28986-4 0  99962 57151  43.0022 244.0720 0001457 265.3465  94.7220 15.27577018180319

JSON: /api/v1/satellites/57151 · /tle

For live sub-satellite position, see the globe view (requires WebGL).

§ Visibility from observer

Set your observer location to see the next 7 days of passes ≥ 10°. The values pass through the URL so the page stays shareable.

No JS? Fill the form by hand. The geolocation button needs JavaScript.